Location: Ca��n la Puerta
(32.5440°N, 116.6804°W)
Time: 02:22:20
(UTC+00:00)

Cosmos 1656 - Pass Details

Date: 15 June 2021
Orbit: 797 x 850 km, 71.1° (Epoch: 02 August)

Event Time Altitude Azimuth Distance (km) Brightness Sun altitude
Rises 12:09:44 0° 343° (NNW) 3,418 7.1 -6.1°
Reaches altitude 10° 12:12:13 10° 346° (NNW) 2,480 6.4 -5.7°
Maximum altitude 12:17:53 64° 68° (ENE) 934 4.3 -4.7°
Drops below altitude 10° 12:23:29 10° 150° (SSE) 2,456 6.1 -3.7°
Sets 12:25:56 0° 153° (SSE) 3,382 6.8 -3.2°
